Time,TemperatureF,DewpointF,PressureIn,WindDirection,WindDirectionDegrees,WindSpeedMPH,WindSpeedGustMPH,Humidity,HourlyPrecipIn,Conditions,Clouds,dailyrainin,SolarRadiationWatts/m^2,SoftwareType,DateUTC
2013-03-02 00:00:00,34.1,26.1,29.69,WNW,296,3.0,8.0,72,0.00,,,0.00,0.0,WUHU216DAVISWMX,2013-03-02 05:00:00,
2013-03-02 00:05:00,34.1,26.1,29.69,NW,316,1.0,8.0,72,0.00,,,0.00,0.0,WUHU216DAVISWMX,2013-03-02 05:05:00,
2013-03-02 00:10:00,34.0,26.0,29.69,NW,316,1.0,5.0,72,0.00,,,0.00,0.0,WUHU216DAVISWMX,2013-03-02 05:10:00,
2013-03-02 00:15:00,34.0,26.0,29.69,NW,316,1.0,5.0,72,0.00,,,0.00,0.0,WUHU216DAVISWMX,2013-03-02 05:15:00,
2013-03-02 00:20:00,34.0,26.0,29.69,NW,312,3.0,5.0,72,0.00,,,0.00,0.0,WUHU216DAVISWMX,2013-03-02 05:20:00,
2013-03-02 00:25:00,33.9,25.9,29.69,NW,308,1.0,5.0,72,0.00,,,0.00,0.0,WUHU216DAVISWMX,2013-03-02 05:25:00,
2013-03-02 00:30:00,33.9,25.9,29.69,WNW,302,4.0,5.0,72,0.00,,,0.00,0.0,WUHU216DAVISWMX,2013-03-02 05:30:00,
2013-03-02 00:35:00,33.9,26.2,29.68,WNW,302,0.0,5.0,73,0.00,,,0.00,0.0,WUHU216DAVISWMX,2013-03-02 05:35:00,
2013-03-02 00:40:00,33.8,25.8,29.69,WNW,300,2.0,5.0,72,0.00,,,0.00,0.0,WUHU216DAVISWMX,2013-03-02 05:40:00,
2013-03-02 00:45:00,33.8,25.8,29.68,WNW,300,0.0,5.0,72,0.00,,,0.00,0.0,WUHU216DAVISWMX,2013-03-02 05:45:00,
2013-03-02 00:50:00,33.8,26.1,29.69,WNW,300,2.0,4.0,73,0.00,,,0.00,0.0,WUHU216DAVISWMX,2013-03-02 05:50:00,
2013-03-02 00:55:00,33.7,26.0,29.68,WNW,300,0.0,4.0,73,0.00,,,0.00,0.0,WUHU216DAVISWMX,2013-03-02 05:55:00,
2013-03-02 01:00:00,33.7,26.0,29.68,WNW,300,0.0,4.0,73,0.00,,,0.00,0.0,WUHU216DAVISWMX,2013-03-02 06:00:00,
2013-03-02 01:05:00,33.7,25.7,29.69,WNW,300,1.0,4.0,72,0.00,,,0.00,0.0,WUHU216DAVISWMX,2013-03-02 06:05:00,
2013-03-02 01:10:00,33.7,26.0,29.68,WNW,300,3.0,3.0,73,0.00,,,0.00,0.0,WUHU216DAVISWMX,2013-03-02 06:10:00,
2013-03-02 01:15:00,33.6,25.9,29.68,WNW,300,0.0,3.0,73,0.00,,,0.00,0.0,WUHU216DAVISWMX,2013-03-02 06:15:00,
2013-03-02 01:20:00,33.6,25.9,29.68,WNW,301,4.0,5.0,73,0.00,,,0.00,0.0,WUHU216DAVISWMX,2013-03-02 06:20:00,
2013-03-02 01:25:00,33.6,25.9,29.68,WNW,303,1.0,5.0,73,0.00,,,0.00,0.0,WUHU216DAVISWMX,2013-03-02 06:25:00,
2013-03-02 01:30:00,33.6,25.6,29.68,WNW,303,2.0,5.0,72,0.00,,,0.00,0.0,WUHU216DAVISWMX,2013-03-02 06:30:00,
2013-03-02 01:35:00,33.6,25.6,29.68,WNW,303,0.0,5.0,72,0.00,,,0.00,0.0,WUHU216DAVISWMX,2013-03-02 06:35:00,
2013-03-02 01:40:00,33.6,25.9,29.67,WNW,302,3.0,5.0,73,0.00,,,0.00,0.0,WUHU216DAVISWMX,2013-03-02 06:40:00,
2013-03-02 01:45:00,33.6,25.9,29.68,NW,306,4.0,6.0,73,0.00,,,0.00,0.0,WUHU216DAVISWMX,2013-03-02 06:45:00,
2013-03-02 01:50:00,33.6,25.9,29.68,NW,305,3.0,6.0,73,0.00,,,0.00,0.0,WUHU216DAVISWMX,2013-03-02 06:50:00,
2013-03-02 01:55:00,33.6,25.6,29.68,WNW,289,3.0,7.0,72,0.00,,,0.00,0.0,WUHU216DAVISWMX,2013-03-02 06:55:00,
2013-03-02 02:00:00,33.6,25.6,29.68,WNW,289,0.0,7.0,72,0.00,,,0.00,0.0,WUHU216DAVISWMX,2013-03-02 07:00:00,
2013-03-02 02:05:00,33.6,25.6,29.68,WNW,291,0.0,5.0,72,0.00,,,0.00,0.0,WUHU216DAVISWMX,2013-03-02 07:05:00,
2013-03-02 02:10:00,33.5,25.5,29.67,WNW,291,0.0,5.0,72,0.00,,,0.00,0.0,WUHU216DAVISWMX,2013-03-02 07:10:00,
2013-03-02 02:15:00,33.5,25.5,29.67,WNW,292,0.0,4.0,72,0.00,,,0.00,0.0,WUHU216DAVISWMX,2013-03-02 07:15:00,
2013-03-02 02:20:00,33.4,25.4,29.67,WNW,292,4.0,4.0,72,0.00,,,0.00,0.0,WUHU216DAVISWMX,2013-03-02 07:20:00,
2013-03-02 02:25:00,33.4,25.4,29.67,WNW,294,1.0,5.0,72,0.00,,,0.00,0.0,WUHU216DAVISWMX,2013-03-02 07:25:00,
2013-03-02 02:30:00,33.4,25.4,29.67,WNW,294,0.0,5.0,72,0.00,,,0.00,0.0,WUHU216DAVISWMX,2013-03-02 07:30:00,
2013-03-02 02:35:00,33.4,25.4,29.67,WNW,291,0.0,7.0,72,0.00,,,0.00,0.0,WUHU216DAVISWMX,2013-03-02 07:35:00,
2013-03-02 02:40:00,33.4,25.4,29.67,WNW,290,3.0,7.0,72,0.00,,,0.00,0.0,WUHU216DAVISWMX,2013-03-02 07:40:00,
2013-03-02 02:45:00,33.3,25.3,29.67,WNW,289,3.0,6.0,72,0.00,,,0.00,0.0,WUHU216DAVISWMX,2013-03-02 07:45:00,
2013-03-02 02:50:00,33.3,25.3,29.67,WNW,289,2.0,4.0,72,0.00,,,0.00,0.0,WUHU216DAVISWMX,2013-03-02 07:50:00,
2013-03-02 02:55:00,33.3,25.6,29.67,WNW,289,0.0,3.0,73,0.00,,,0.00,0.0,WUHU216DAVISWMX,2013-03-02 07:55:00,
2013-03-02 03:00:00,33.2,25.5,29.67,WNW,289,1.0,3.0,73,0.00,,,0.00,0.0,WUHU216DAVISWMX,2013-03-02 08:00:00,
2013-03-02 03:05:00,33.1,25.4,29.67,WNW,289,0.0,3.0,73,0.00,,,0.00,0.0,WUHU216DAVISWMX,2013-03-02 08:05:00,
2013-03-02 03:10:00,33.2,25.2,29.67,WNW,291,2.0,5.0,72,0.00,,,0.00,0.0,WUHU216DAVISWMX,2013-03-02 08:10:00,
2013-03-02 03:15:00,33.2,25.2,29.67,WNW,290,2.0,5.0,72,0.00,,,0.00,0.0,WUHU216DAVISWMX,2013-03-02 08:15:00,
2013-03-02 03:20:00,33.2,25.5,29.67,WNW,290,2.0,5.0,73,0.00,,,0.00,0.0,WUHU216DAVISWMX,2013-03-02 08:20:00,
2013-03-02 03:25:00,33.1,25.1,29.67,WNW,290,6.0,6.0,72,0.00,,,0.00,0.0,WUHU216DAVISWMX,2013-03-02 08:25:00,
2013-03-02 03:30:00,33.1,25.1,29.67,WNW,289,0.0,6.0,72,0.00,,,0.00,0.0,WUHU216DAVISWMX,2013-03-02 08:30:00,
2013-03-02 03:35:00,33.1,25.1,29.67,WNW,290,4.0,6.0,72,0.00,,,0.00,0.0,WUHU216DAVISWMX,2013-03-02 08:35:00,
2013-03-02 03:40:00,33.1,25.1,29.67,WNW,290,3.0,5.0,72,0.00,,,0.00,0.0,WUHU216DAVISWMX,2013-03-02 08:40:00,
2013-03-02 03:45:00,33.1,25.1,29.67,WNW,290,0.0,5.0,72,0.00,,,0.00,0.0,WUHU216DAVISWMX,2013-03-02 08:45:00,
2013-03-02 03:50:00,33.1,25.1,29.67,WNW,291,4.0,5.0,72,0.00,,,0.00,0.0,WUHU216DAVISWMX,2013-03-02 08:50:00,
2013-03-02 03:55:00,33.0,25.0,29.67,WNW,291,3.0,6.0,72,0.00,,,0.00,0.0,WUHU216DAVISWMX,2013-03-02 08:55:00,
2013-03-02 04:00:00,33.0,25.0,29.67,WNW,291,1.0,6.0,72,0.00,,,0.00,0.0,WUHU216DAVISWMX,2013-03-02 09:00:00,
2013-03-02 04:05:00,33.0,25.0,29.67,WNW,292,1.0,5.0,72,0.00,,,0.00,0.0,WUHU216DAVISWMX,2013-03-02 09:05:00,
2013-03-02 04:10:00,32.9,24.9,29.67,WNW,292,1.0,5.0,72,0.00,,,0.00,0.0,WUHU216DAVISWMX,2013-03-02 09:10:00,
2013-03-02 04:15:00,32.9,24.9,29.67,WNW,292,3.0,5.0,72,0.00,,,0.00,0.0,WUHU216DAVISWMX,2013-03-02 09:15:00,
2013-03-02 04:20:00,32.9,24.9,29.67,WNW,295,0.0,5.0,72,0.00,,,0.00,0.0,WUHU216DAVISWMX,2013-03-02 09:20:00,
2013-03-02 04:25:00,32.8,24.8,29.67,NNW,336,0.0,8.0,72,0.00,,,0.00,0.0,WUHU216DAVISWMX,2013-03-02 09:25:00,
2013-03-02 04:30:00,32.8,24.8,29.67,NW,318,0.0,8.0,72,0.00,,,0.00,0.0,WUHU216DAVISWMX,2013-03-02 09:30:00,
2013-03-02 04:36:00,32.7,24.7,29.67,NW,307,1.0,5.0,72,0.00,,,0.00,0.0,WUHU216DAVISWMX,2013-03-02 09:36:00,
2013-03-02 04:40:00,32.5,24.5,29.67,NW,306,1.0,5.0,72,0.00,,,0.00,0.0,WUHU216DAVISWMX,2013-03-02 09:40:00,
2013-03-02 04:45:00,32.3,24.3,29.67,WNW,302,0.0,5.0,72,0.00,,,0.00,0.0,WUHU216DAVISWMX,2013-03-02 09:45:00,
2013-03-02 04:51:00,32.2,24.2,29.67,WNW,288,0.0,6.0,72,0.00,,,0.00,0.0,WUHU216DAVISWMX,2013-03-02 09:51:00,
2013-03-02 04:55:00,32.1,24.1,29.67,WNW,288,3.0,6.0,72,0.00,,,0.00,0.0,WUHU216DAVISWMX,2013-03-02 09:55:00,
2013-03-02 05:00:00,32.0,24.4,29.67,NW,322,6.0,6.0,73,0.00,,,0.00,0.0,WUHU216DAVISWMX,2013-03-02 10:00:00,
2013-03-02 05:05:00,31.9,24.3,29.68,NW,322,1.0,6.0,73,0.00,,,0.00,0.0,WUHU216DAVISWMX,2013-03-02 10:05:00,
2013-03-02 05:11:00,31.8,24.2,29.68,NW,319,1.0,6.0,73,0.00,,,0.00,0.0,WUHU216DAVISWMX,2013-03-02 10:11:00,
2013-03-02 05:16:00,31.6,24.0,29.67,NW,319,0.0,5.0,73,0.00,,,0.00,0.0,WUHU216DAVISWMX,2013-03-02 10:16:00,
2013-03-02 05:21:00,31.5,23.9,29.68,NW,320,0.0,5.0,73,0.00,,,0.00,0.0,WUHU216DAVISWMX,2013-03-02 10:21:00,
2013-03-02 05:26:00,31.4,23.8,29.67,NW,320,0.0,5.0,73,0.00,,,0.00,0.0,WUHU216DAVISWMX,2013-03-02 10:26:00,
2013-03-02 05:31:00,31.2,23.9,29.67,NW,320,0.0,4.0,74,0.00,,,0.00,0.0,WUHU216DAVISWMX,2013-03-02 10:31:00,
2013-03-02 05:36:00,31.0,23.7,29.67,NW,320,1.0,4.0,74,0.00,,,0.00,0.0,WUHU216DAVISWMX,2013-03-02 10:36:00,
2013-03-02 05:41:00,30.8,23.5,29.67,NW,320,0.0,3.0,74,0.00,,,0.00,0.0,WUHU216DAVISWMX,2013-03-02 10:41:00,
2013-03-02 05:46:00,30.5,23.2,29.67,NW,320,0.0,3.0,74,0.00,,,0.00,0.0,WUHU216DAVISWMX,2013-03-02 10:46:00,
2013-03-02 05:51:00,30.3,23.7,29.67,NW,319,0.0,1.0,76,0.00,,,0.00,0.0,WUHU216DAVISWMX,2013-03-02 10:51:00,
2013-03-02 05:56:00,29.9,23.3,29.68,NW,319,0.0,0.0,76,0.00,,,0.00,0.0,WUHU216DAVISWMX,2013-03-02 10:56:00,
2013-03-02 06:01:00,29.7,24.6,29.68,NW,320,0.0,1.0,81,0.00,,,0.00,0.0,WUHU216DAVISWMX,2013-03-02 11:01:00,
2013-03-02 06:06:00,29.5,24.4,29.68,NW,320,0.0,1.0,81,0.00,,,0.00,0.0,WUHU216DAVISWMX,2013-03-02 11:06:00,
2013-03-02 06:11:00,29.3,24.2,29.68,NW,320,0.0,0.0,81,0.00,,,0.00,0.0,WUHU216DAVISWMX,2013-03-02 11:11:00,
2013-03-02 06:16:00,29.1,24.0,29.68,NW,320,0.0,1.0,81,0.00,,,0.00,0.0,WUHU216DAVISWMX,2013-03-02 11:16:00,
2013-03-02 06:21:00,29.0,24.2,29.68,NW,320,0.0,1.0,82,0.00,,,0.00,0.0,WUHU216DAVISWMX,2013-03-02 11:21:00,
2013-03-02 06:26:00,28.8,24.0,29.68,NW,320,0.0,0.0,82,0.00,,,0.00,0.0,WUHU216DAVISWMX,2013-03-02 11:26:00,
2013-03-02 06:31:00,28.6,24.1,29.68,NW,319,0.0,0.0,83,0.00,,,0.00,0.0,WUHU216DAVISWMX,2013-03-02 11:31:00,
2013-03-02 06:36:00,28.4,24.4,29.68,NW,320,0.0,0.0,85,0.00,,,0.00,0.0,WUHU216DAVISWMX,2013-03-02 11:36:00,
2013-03-02 06:41:00,28.3,24.6,29.68,NW,320,0.0,0.0,86,0.00,,,0.00,0.0,WUHU216DAVISWMX,2013-03-02 11:41:00,
2013-03-02 06:46:00,28.2,24.5,29.68,NW,319,0.0,0.0,86,0.00,,,0.00,0.0,WUHU216DAVISWMX,2013-03-02 11:46:00,
2013-03-02 06:51:00,28.0,24.3,29.68,NW,320,0.0,0.0,86,0.00,,,0.00,0.0,WUHU216DAVISWMX,2013-03-02 11:51:00,
2013-03-02 06:56:00,28.0,24.6,29.68,NW,320,0.0,0.0,87,0.00,,,0.00,0.0,WUHU216DAVISWMX,2013-03-02 11:56:00,
2013-03-02 07:01:00,28.0,24.6,29.68,NW,320,0.0,0.0,87,0.00,,,0.00,0.0,WUHU216DAVISWMX,2013-03-02 12:01:00,
2013-03-02 07:06:00,28.0,24.6,29.68,NW,320,0.0,0.0,87,0.00,,,0.00,0.0,WUHU216DAVISWMX,2013-03-02 12:06:00,
2013-03-02 07:11:00,28.1,24.7,29.68,NW,320,0.0,0.0,87,0.00,,,0.00,0.0,WUHU216DAVISWMX,2013-03-02 12:11:00,
2013-03-02 07:16:00,28.2,24.8,29.68,NW,320,0.0,0.0,87,0.00,,,0.00,0.0,WUHU216DAVISWMX,2013-03-02 12:16:00,
2013-03-02 07:21:00,28.5,25.4,29.67,NW,319,0.0,2.0,88,0.00,,,0.00,0.0,WUHU216DAVISWMX,2013-03-02 12:21:00,
2013-03-02 07:26:00,29.5,26.3,29.68,NW,307,3.0,6.0,88,0.00,,,0.00,0.0,WUHU216DAVISWMX,2013-03-02 12:26:00,
2013-03-02 07:31:00,30.7,26.7,29.68,NW,308,2.0,7.0,85,0.00,,,0.00,0.0,WUHU216DAVISWMX,2013-03-02 12:31:00,
2013-03-02 07:36:00,31.6,27.0,29.68,NW,308,5.0,7.0,83,0.00,,,0.00,0.0,WUHU216DAVISWMX,2013-03-02 12:36:00,
2013-03-02 07:41:00,32.5,27.3,29.68,NW,309,0.0,5.0,81,0.00,,,0.00,0.0,WUHU216DAVISWMX,2013-03-02 12:41:00,
2013-03-02 07:46:00,33.1,27.6,29.68,NNW,328,2.0,5.0,80,0.00,,,0.00,0.0,WUHU216DAVISWMX,2013-03-02 12:46:00,
2013-03-02 07:51:00,33.4,27.6,29.68,NW,314,3.0,7.0,79,0.00,,,0.00,0.0,WUHU216DAVISWMX,2013-03-02 12:51:00,
2013-03-02 07:56:00,33.7,27.3,29.68,NW,309,1.0,7.0,77,0.00,,,0.00,0.0,WUHU216DAVISWMX,2013-03-02 12:56:00,
2013-03-02 08:01:00,34.0,27.6,29.67,WNW,296,3.0,8.0,77,0.00,,,0.00,0.0,WUHU216DAVISWMX,2013-03-02 13:01:00,
2013-03-02 08:06:00,34.3,27.9,29.67,WNW,298,0.0,8.0,77,0.00,,,0.00,0.0,WUHU216DAVISWMX,2013-03-02 13:06:00,
2013-03-02 08:11:00,34.7,27.9,29.67,NNW,331,6.0,12.0,76,0.00,,,0.00,0.0,WUHU216DAVISWMX,2013-03-02 13:11:00,
2013-03-02 08:16:00,34.8,27.7,29.67,NW,310,4.0,12.0,75,0.00,,,0.00,0.0,WUHU216DAVISWMX,2013-03-02 13:16:00,
2013-03-02 08:21:00,35.1,27.7,29.67,WNW,294,4.0,7.0,74,0.00,,,0.00,0.0,WUHU216DAVISWMX,2013-03-02 13:21:00,
2013-03-02 08:26:00,35.2,27.8,29.67,WNW,284,4.0,8.0,74,0.00,,,0.00,0.0,WUHU216DAVISWMX,2013-03-02 13:26:00,
2013-03-02 08:31:00,35.4,28.0,29.68,NNW,328,6.0,8.0,74,0.00,,,0.00,0.0,WUHU216DAVISWMX,2013-03-02 13:31:00,
2013-03-02 08:36:00,35.5,27.8,29.68,NW,311,4.0,12.0,73,0.00,,,0.00,0.0,WUHU216DAVISWMX,2013-03-02 13:36:00,
2013-03-02 08:41:00,35.6,27.9,29.68,WNW,295,3.0,12.0,73,0.00,,,0.00,0.0,WUHU216DAVISWMX,2013-03-02 13:41:00,
2013-03-02 08:46:00,35.6,27.9,29.68,NW,313,6.0,9.0,73,0.00,,,0.00,0.0,WUHU216DAVISWMX,2013-03-02 13:46:00,
2013-03-02 08:51:00,35.8,28.0,29.68,NNW,342,7.0,10.0,73,0.00,,,0.00,0.0,WUHU216DAVISWMX,2013-03-02 13:51:00,
2013-03-02 08:56:00,36.0,28.2,29.68,WNW,288,8.0,11.0,73,0.00,,,0.00,0.0,WUHU216DAVISWMX,2013-03-02 13:56:00,
2013-03-02 09:01:00,35.8,27.7,29.68,NW,326,7.0,11.0,72,0.00,,,0.00,0.0,WUHU216DAVISWMX,2013-03-02 14:01:00,
2013-03-02 09:06:00,35.8,27.7,29.68,North,356,3.0,10.0,72,0.00,,,0.00,0.0,WUHU216DAVISWMX,2013-03-02 14:06:00,
2013-03-02 09:11:00,35.9,28.1,29.68,WNW,283,4.0,10.0,73,0.00,,,0.00,0.0,WUHU216DAVISWMX,2013-03-02 14:11:00,
2013-03-02 09:16:00,36.5,29.1,29.68,West,267,5.0,8.0,74,0.00,,,0.00,0.0,WUHU216DAVISWMX,2013-03-02 14:16:00,
2013-03-02 09:21:00,36.7,28.6,29.68,WNW,300,3.0,8.0,72,0.00,,,0.00,0.0,WUHU216DAVISWMX,2013-03-02 14:21:00,
2013-03-02 09:26:00,37.0,28.9,29.68,NW,316,5.0,8.0,72,0.00,,,0.00,0.0,WUHU216DAVISWMX,2013-03-02 14:26:00,
2013-03-02 09:31:00,37.1,28.6,29.68,NW,311,0.0,9.0,71,0.00,,,0.00,0.0,WUHU216DAVISWMX,2013-03-02 14:31:00,
2013-03-02 09:36:00,37.1,28.6,29.68,NW,309,6.0,9.0,71,0.00,,,0.00,0.0,WUHU216DAVISWMX,2013-03-02 14:36:00,
2013-03-02 09:41:00,37.1,28.6,29.68,WNW,294,2.0,9.0,71,0.00,,,0.00,0.0,WUHU216DAVISWMX,2013-03-02 14:41:00,
2013-03-02 09:46:00,37.1,28.6,29.68,West,277,2.0,9.0,71,0.00,,,0.00,0.0,WUHU216DAVISWMX,2013-03-02 14:46:00,
2013-03-02 09:51:00,37.2,28.7,29.68,NW,317,0.0,7.0,71,0.00,,,0.00,0.0,WUHU216DAVISWMX,2013-03-02 14:51:00,
2013-03-02 09:56:00,37.3,28.8,29.68,NW,321,4.0,7.0,71,0.00,,,0.00,0.0,WUHU216DAVISWMX,2013-03-02 14:56:00,
2013-03-02 10:01:00,37.3,28.8,29.68,WNW,296,1.0,7.0,71,0.00,,,0.00,0.0,WUHU216DAVISWMX,2013-03-02 15:01:00,
2013-03-02 10:06:00,37.2,28.7,29.68,NNW,333,4.0,9.0,71,0.00,,,0.00,0.0,WUHU216DAVISWMX,2013-03-02 15:06:00,
2013-03-02 10:11:00,37.1,28.6,29.68,NW,320,3.0,9.0,71,0.00,,,0.00,0.0,WUHU216DAVISWMX,2013-03-02 15:11:00,
2013-03-02 10:16:00,37.3,29.2,29.68,WNW,291,3.0,6.0,72,0.00,,,0.00,0.0,WUHU216DAVISWMX,2013-03-02 15:16:00,
2013-03-02 10:21:00,37.4,29.3,29.68,WNW,300,3.0,7.0,72,0.00,,,0.00,0.0,WUHU216DAVISWMX,2013-03-02 15:21:00,
2013-03-02 10:26:00,37.5,29.0,29.68,NW,323,2.0,8.0,71,0.00,,,0.00,0.0,WUHU216DAVISWMX,2013-03-02 15:26:00,
2013-03-02 10:31:00,37.6,28.8,29.68,WNW,295,4.0,8.0,70,0.00,,,0.00,0.0,WUHU216DAVISWMX,2013-03-02 15:31:00,
2013-03-02 10:36:00,37.6,28.8,29.68,WNW,296,2.0,8.0,70,0.00,,,0.00,0.0,WUHU216DAVISWMX,2013-03-02 15:36:00,
2013-03-02 10:41:00,37.6,28.4,29.68,NNW,342,2.0,8.0,69,0.00,,,0.00,0.0,WUHU216DAVISWMX,2013-03-02 15:41:00,
2013-03-02 10:46:00,37.6,28.4,29.68,WNW,291,4.0,6.0,69,0.00,,,0.00,0.0,WUHU216DAVISWMX,2013-03-02 15:46:00,
2013-03-02 10:55:00,37.7,28.9,29.68,WNW,299,4.0,6.0,70,0.00,,,0.00,0.0,WUHU216DAVISWMX,2013-03-02 15:55:00,
2013-03-02 11:00:00,37.9,28.7,29.68,WNW,290,7.0,8.0,69,0.00,,,0.00,0.0,WUHU216DAVISWMX,2013-03-02 16:00:00,
2013-03-02 11:05:00,37.7,28.5,29.68,NW,320,4.0,9.0,69,0.00,,,0.00,0.0,WUHU216DAVISWMX,2013-03-02 16:05:00,
2013-03-02 11:10:00,37.8,28.6,29.68,NW,307,3.0,9.0,69,0.00,,,0.00,0.0,WUHU216DAVISWMX,2013-03-02 16:10:00,
2013-03-02 11:15:00,38.3,28.7,29.67,NW,320,3.0,8.0,68,0.00,,,0.00,0.0,WUHU216DAVISWMX,2013-03-02 16:15:00,
2013-03-02 11:20:00,38.5,28.6,29.67,West,281,5.0,12.0,67,0.00,,,0.00,0.0,WUHU216DAVISWMX,2013-03-02 16:20:00,
2013-03-02 11:25:00,38.4,28.8,29.67,NW,322,3.0,12.0,68,0.00,,,0.00,0.0,WUHU216DAVISWMX,2013-03-02 16:25:00,
2013-03-02 11:30:00,38.4,28.8,29.67,WNW,285,2.0,7.0,68,0.00,,,0.00,0.0,WUHU216DAVISWMX,2013-03-02 16:30:00,
2013-03-02 11:35:00,38.6,29.0,29.67,NNW,333,3.0,7.0,68,0.00,,,0.00,0.0,WUHU216DAVISWMX,2013-03-02 16:35:00,
2013-03-02 11:40:00,38.4,29.2,29.67,West,281,3.0,9.0,69,0.00,,,0.00,0.0,WUHU216DAVISWMX,2013-03-02 16:40:00,
2013-03-02 11:45:00,38.4,29.5,29.67,NNW,327,5.0,9.0,70,0.00,,,0.00,0.0,WUHU216DAVISWMX,2013-03-02 16:45:00,
2013-03-02 11:50:00,38.4,29.5,29.67,NW,311,2.0,9.0,70,0.00,,,0.00,0.0,WUHU216DAVISWMX,2013-03-02 16:50:00,
2013-03-02 11:55:00,38.5,29.6,29.66,WNW,290,4.0,9.0,70,0.00,,,0.00,0.0,WUHU216DAVISWMX,2013-03-02 16:55:00,
2013-03-02 12:00:00,38.5,29.6,29.66,NNW,341,1.0,7.0,70,0.00,,,0.00,0.0,WUHU216DAVISWMX,2013-03-02 17:00:00,
2013-03-02 12:05:00,39.0,30.1,29.66,NW,322,4.0,7.0,70,0.00,,,0.00,0.0,WUHU216DAVISWMX,2013-03-02 17:05:00,
2013-03-02 12:10:00,39.2,29.2,29.66,WSW,252,2.0,8.0,67,0.00,,,0.00,0.0,WUHU216DAVISWMX,2013-03-02 17:10:00,
2013-03-02 12:15:00,39.4,28.7,29.65,WNW,291,6.0,8.0,65,0.00,,,0.00,0.0,WUHU216DAVISWMX,2013-03-02 17:15:00,
2013-03-02 12:20:00,39.4,28.7,29.65,NW,313,2.0,7.0,65,0.00,,,0.00,0.0,WUHU216DAVISWMX,2013-03-02 17:20:00,
2013-03-02 12:25:00,39.8,29.1,29.65,WNW,290,2.0,7.0,65,0.00,,,0.00,0.0,WUHU216DAVISWMX,2013-03-02 17:25:00,
2013-03-02 12:30:00,39.3,29.7,29.65,WNW,298,2.0,8.0,68,0.00,,,0.00,0.0,WUHU216DAVISWMX,2013-03-02 17:30:00,
2013-03-02 12:35:00,39.4,30.2,29.65,WNW,298,3.0,8.0,69,0.00,,,0.00,0.0,WUHU216DAVISWMX,2013-03-02 17:35:00,
2013-03-02 12:40:00,39.7,30.1,29.65,NW,307,1.0,6.0,68,0.00,,,0.00,0.0,WUHU216DAVISWMX,2013-03-02 17:40:00,
2013-03-02 12:45:00,40.0,30.7,29.64,WNW,291,3.0,7.0,69,0.00,,,0.00,0.0,WUHU216DAVISWMX,2013-03-02 17:45:00,
2013-03-02 12:50:00,40.5,31.2,29.64,North,3,3.0,7.0,69,0.00,,,0.00,0.0,WUHU216DAVISWMX,2013-03-02 17:50:00,
2013-03-02 12:55:00,40.8,30.4,29.64,North,353,3.0,8.0,66,0.00,,,0.00,0.0,WUHU216DAVISWMX,2013-03-02 17:55:00,
2013-03-02 13:00:00,40.5,29.4,29.64,NNW,327,2.0,8.0,64,0.00,,,0.00,0.0,WUHU216DAVISWMX,2013-03-02 18:00:00,
2013-03-02 13:05:00,40.2,29.5,29.64,NW,320,0.0,7.0,65,0.00,,,0.00,0.0,WUHU216DAVISWMX,2013-03-02 18:05:00,
2013-03-02 13:10:00,40.2,29.5,29.64,NW,315,2.0,7.0,65,0.00,,,0.00,0.0,WUHU216DAVISWMX,2013-03-02 18:10:00,
2013-03-02 13:15:00,40.2,29.5,29.64,NW,312,4.0,5.0,65,0.00,,,0.00,0.0,WUHU216DAVISWMX,2013-03-02 18:15:00,
2013-03-02 13:20:00,40.0,29.3,29.64,WNW,289,1.0,6.0,65,0.00,,,0.00,0.0,WUHU216DAVISWMX,2013-03-02 18:20:00,
2013-03-02 13:25:00,39.9,29.2,29.64,WNW,289,1.0,6.0,65,0.00,,,0.00,0.0,WUHU216DAVISWMX,2013-03-02 18:25:00,
2013-03-02 13:30:00,40.2,29.5,29.64,WNW,288,3.0,4.0,65,0.00,,,0.00,0.0,WUHU216DAVISWMX,2013-03-02 18:30:00,
2013-03-02 13:35:00,40.5,29.4,29.64,WNW,288,1.0,4.0,64,0.00,,,0.00,0.0,WUHU216DAVISWMX,2013-03-02 18:35:00,
2013-03-02 13:40:00,40.5,29.0,29.64,WNW,288,5.0,6.0,63,0.00,,,0.00,0.0,WUHU216DAVISWMX,2013-03-02 18:40:00,
2013-03-02 13:45:00,40.3,28.8,29.64,WNW,300,0.0,6.0,63,0.00,,,0.00,0.0,WUHU216DAVISWMX,2013-03-02 18:45:00,
2013-03-02 13:50:00,40.2,28.7,29.64,WNW,298,6.0,6.0,63,0.00,,,0.00,0.0,WUHU216DAVISWMX,2013-03-02 18:50:00,
2013-03-02 13:55:00,40.2,29.1,29.64,North,357,3.0,6.0,64,0.00,,,0.00,0.0,WUHU216DAVISWMX,2013-03-02 18:55:00,
2013-03-02 14:00:00,40.2,28.7,29.64,WNW,296,4.0,7.0,63,0.00,,,0.00,0.0,WUHU216DAVISWMX,2013-03-02 19:00:00,
2013-03-02 14:05:00,40.4,28.9,29.64,NW,310,0.0,7.0,63,0.00,,,0.00,0.0,WUHU216DAVISWMX,2013-03-02 19:05:00,
2013-03-02 14:10:00,40.5,28.6,29.63,WNW,297,5.0,6.0,62,0.00,,,0.00,0.0,WUHU216DAVISWMX,2013-03-02 19:10:00,
2013-03-02 14:15:00,40.6,28.7,29.64,WNW,297,3.0,6.0,62,0.00,,,0.00,0.0,WUHU216DAVISWMX,2013-03-02 19:15:00,
2013-03-02 14:20:00,40.7,28.8,29.64,WNW,298,1.0,6.0,62,0.00,,,0.00,0.0,WUHU216DAVISWMX,2013-03-02 19:20:00,
2013-03-02 14:25:00,40.8,28.9,29.63,WNW,298,0.0,5.0,62,0.00,,,0.00,0.0,WUHU216DAVISWMX,2013-03-02 19:25:00,
2013-03-02 14:30:00,40.8,28.5,29.63,WNW,299,3.0,4.0,61,0.00,,,0.00,0.0,WUHU216DAVISWMX,2013-03-02 19:30:00,
2013-03-02 14:35:00,40.9,29.0,29.63,WNW,299,0.0,5.0,62,0.00,,,0.00,0.0,WUHU216DAVISWMX,2013-03-02 19:35:00,
2013-03-02 14:40:00,41.0,28.6,29.63,WNW,299,0.0,5.0,61,0.00,,,0.00,0.0,WUHU216DAVISWMX,2013-03-02 19:40:00,
2013-03-02 14:45:00,41.0,28.6,29.63,WNW,299,0.0,2.0,61,0.00,,,0.00,0.0,WUHU216DAVISWMX,2013-03-02 19:45:00,
2013-03-02 14:50:00,41.0,28.6,29.63,WNW,299,1.0,2.0,61,0.00,,,0.00,0.0,WUHU216DAVISWMX,2013-03-02 19:50:00,
2013-03-02 14:55:00,40.9,28.1,29.63,WNW,299,0.0,5.0,60,0.00,,,0.00,0.0,WUHU216DAVISWMX,2013-03-02 19:55:00,
2013-03-02 15:00:00,40.8,28.0,29.64,WNW,299,1.0,5.0,60,0.00,,,0.00,0.0,WUHU216DAVISWMX,2013-03-02 20:00:00,
2013-03-02 15:05:00,40.8,28.0,29.64,WNW,300,1.0,2.0,60,0.00,,,0.00,0.0,WUHU216DAVISWMX,2013-03-02 20:05:00,
2013-03-02 15:10:00,40.7,28.4,29.63,WNW,299,0.0,2.0,61,0.00,,,0.00,0.0,WUHU216DAVISWMX,2013-03-02 20:10:00,
2013-03-02 15:15:00,40.7,28.0,29.63,WNW,298,2.0,5.0,60,0.00,,,0.00,0.0,WUHU216DAVISWMX,2013-03-02 20:15:00,
2013-03-02 15:20:00,40.5,27.8,29.63,NW,305,3.0,6.0,60,0.00,,,0.00,0.0,WUHU216DAVISWMX,2013-03-02 20:20:00,
2013-03-02 15:25:00,40.2,27.5,29.63,WNW,295,6.0,7.0,60,0.00,,,0.00,0.0,WUHU216DAVISWMX,2013-03-02 20:25:00,
2013-03-02 15:30:00,40.1,27.8,29.64,NW,318,4.0,7.0,61,0.00,,,0.00,0.0,WUHU216DAVISWMX,2013-03-02 20:30:00,
2013-03-02 15:35:00,40.0,27.7,29.64,NW,312,4.0,7.0,61,0.00,,,0.00,0.0,WUHU216DAVISWMX,2013-03-02 20:35:00,
2013-03-02 15:40:00,39.9,27.6,29.63,NW,318,5.0,8.0,61,0.00,,,0.00,0.0,WUHU216DAVISWMX,2013-03-02 20:40:00,
2013-03-02 15:45:00,39.8,27.9,29.64,NW,309,4.0,8.0,62,0.00,,,0.00,0.0,WUHU216DAVISWMX,2013-03-02 20:45:00,
2013-03-02 15:50:00,39.8,27.5,29.63,NW,321,2.0,5.0,61,0.00,,,0.00,0.0,WUHU216DAVISWMX,2013-03-02 20:50:00,
2013-03-02 15:55:00,39.8,27.9,29.63,NW,305,5.0,10.0,62,0.00,,,0.00,0.0,WUHU216DAVISWMX,2013-03-02 20:55:00,
2013-03-02 16:00:00,39.6,27.7,29.63,WNW,303,6.0,10.0,62,0.00,,,0.00,0.0,WUHU216DAVISWMX,2013-03-02 21:00:00,
2013-03-02 16:05:00,39.6,27.3,29.64,NW,314,5.0,9.0,61,0.00,,,0.00,0.0,WUHU216DAVISWMX,2013-03-02 21:05:00,
2013-03-02 16:10:00,39.5,27.6,29.64,WNW,300,2.0,9.0,62,0.00,,,0.00,0.0,WUHU216DAVISWMX,2013-03-02 21:10:00,
2013-03-02 16:15:00,39.3,27.4,29.63,NW,305,2.0,9.0,62,0.00,,,0.00,0.0,WUHU216DAVISWMX,2013-03-02 21:15:00,
2013-03-02 16:20:00,39.2,27.7,29.63,WNW,287,8.0,9.0,63,0.00,,,0.00,0.0,WUHU216DAVISWMX,2013-03-02 21:20:00,
2013-03-02 16:25:00,39.0,27.5,29.64,NW,307,3.0,9.0,63,0.00,,,0.00,0.0,WUHU216DAVISWMX,2013-03-02 21:25:00,
2013-03-02 16:30:00,38.9,27.4,29.64,NW,323,8.0,9.0,63,0.00,,,0.00,0.0,WUHU216DAVISWMX,2013-03-02 21:30:00,
2013-03-02 16:35:00,38.8,27.4,29.64,WNW,285,4.0,8.0,63,0.00,,,0.00,0.0,WUHU216DAVISWMX,2013-03-02 21:35:00,
2013-03-02 16:40:00,38.8,27.4,29.64,NW,317,2.0,7.0,63,0.00,,,0.00,0.0,WUHU216DAVISWMX,2013-03-02 21:40:00,
2013-03-02 16:45:00,38.7,27.3,29.64,WNW,296,2.0,7.0,63,0.00,,,0.00,0.0,WUHU216DAVISWMX,2013-03-02 21:45:00,
2013-03-02 16:50:00,38.6,27.2,29.64,WNW,296,2.0,7.0,63,0.00,,,0.00,0.0,WUHU216DAVISWMX,2013-03-02 21:50:00,
2013-03-02 16:55:00,38.6,27.5,29.64,West,278,1.0,5.0,64,0.00,,,0.00,0.0,WUHU216DAVISWMX,2013-03-02 21:55:00,
2013-03-02 17:00:00,38.5,27.5,29.65,WNW,302,0.0,5.0,64,0.00,,,0.00,0.0,WUHU216DAVISWMX,2013-03-02 22:00:00,
2013-03-02 17:05:00,38.5,27.5,29.65,NW,308,6.0,6.0,64,0.00,,,0.00,0.0,WUHU216DAVISWMX,2013-03-02 22:05:00,
2013-03-02 17:10:00,38.4,27.4,29.65,WNW,298,0.0,6.0,64,0.00,,,0.00,0.0,WUHU216DAVISWMX,2013-03-02 22:10:00,
2013-03-02 17:15:00,38.4,27.4,29.65,NW,308,1.0,7.0,64,0.00,,,0.00,0.0,WUHU216DAVISWMX,2013-03-02 22:15:00,
2013-03-02 17:20:00,38.3,27.3,29.65,WNW,292,0.0,7.0,64,0.00,,,0.00,0.0,WUHU216DAVISWMX,2013-03-02 22:20:00,
2013-03-02 17:25:00,38.2,27.2,29.64,NW,304,3.0,7.0,64,0.00,,,0.00,0.0,WUHU216DAVISWMX,2013-03-02 22:25:00,
2013-03-02 17:30:00,38.2,27.2,29.65,NW,319,2.0,8.0,64,0.00,,,0.00,0.0,WUHU216DAVISWMX,2013-03-02 22:30:00,
2013-03-02 17:35:00,38.1,27.4,29.65,NW,313,6.0,8.0,65,0.00,,,0.00,0.0,WUHU216DAVISWMX,2013-03-02 22:35:00,
2013-03-02 17:40:00,38.0,27.0,29.65,WNW,303,1.0,8.0,64,0.00,,,0.00,0.0,WUHU216DAVISWMX,2013-03-02 22:40:00,
2013-03-02 17:45:00,37.9,26.9,29.65,WNW,298,0.0,8.0,64,0.00,,,0.00,0.0,WUHU216DAVISWMX,2013-03-02 22:45:00,
2013-03-02 17:50:00,37.8,27.2,29.65,WNW,293,4.0,11.0,65,0.00,,,0.00,0.0,WUHU216DAVISWMX,2013-03-02 22:50:00,
2013-03-02 17:55:00,37.7,26.7,29.65,NW,304,0.0,11.0,64,0.00,,,0.00,0.0,WUHU216DAVISWMX,2013-03-02 22:55:00,
2013-03-02 18:00:00,37.7,26.7,29.65,WNW,294,4.0,11.0,64,0.00,,,0.00,0.0,WUHU216DAVISWMX,2013-03-02 23:00:00,
2013-03-02 18:05:00,37.6,26.6,29.65,NW,306,2.0,11.0,64,0.00,,,0.00,0.0,WUHU216DAVISWMX,2013-03-02 23:05:00,
2013-03-02 18:10:00,37.5,26.5,29.65,WNW,295,5.0,8.0,64,0.00,,,0.00,0.0,WUHU216DAVISWMX,2013-03-02 23:10:00,
2013-03-02 18:15:00,37.4,26.4,29.65,NW,322,0.0,8.0,64,0.00,,,0.00,0.0,WUHU216DAVISWMX,2013-03-02 23:15:00,
2013-03-02 18:20:00,37.3,26.3,29.65,NW,319,6.0,7.0,64,0.00,,,0.00,0.0,WUHU216DAVISWMX,2013-03-02 23:20:00,
2013-03-02 18:25:00,37.2,26.2,29.66,WNW,300,5.0,8.0,64,0.00,,,0.00,0.0,WUHU216DAVISWMX,2013-03-02 23:25:00,
2013-03-02 18:30:00,37.1,26.1,29.66,NW,312,4.0,8.0,64,0.00,,,0.00,0.0,WUHU216DAVISWMX,2013-03-02 23:30:00,
2013-03-02 18:35:00,37.1,25.7,29.66,NW,318,4.0,9.0,63,0.00,,,0.00,0.0,WUHU216DAVISWMX,2013-03-02 23:35:00,
2013-03-02 18:40:00,37.1,25.7,29.66,WNW,297,6.0,10.0,63,0.00,,,0.00,0.0,WUHU216DAVISWMX,2013-03-02 23:40:00,
2013-03-02 18:45:00,37.0,25.6,29.66,WNW,294,4.0,10.0,63,0.00,,,0.00,0.0,WUHU216DAVISWMX,2013-03-02 23:45:00,
2013-03-02 18:50:00,36.9,25.5,29.66,WNW,288,4.0,10.0,63,0.00,,,0.00,0.0,WUHU216DAVISWMX,2013-03-02 23:50:00,
2013-03-02 18:55:00,36.8,25.5,29.66,West,276,3.0,9.0,63,0.00,,,0.00,0.0,WUHU216DAVISWMX,2013-03-02 23:55:00,
2013-03-02 19:00:00,36.6,25.3,29.66,NW,326,1.0,10.0,63,0.00,,,0.00,0.0,WUHU216DAVISWMX,2013-03-03 00:00:00,
2013-03-02 19:05:00,36.5,25.2,29.66,NW,319,0.0,10.0,63,0.00,,,0.00,0.0,WUHU216DAVISWMX,2013-03-03 00:05:00,
2013-03-02 19:10:00,36.4,25.1,29.66,WNW,290,1.0,10.0,63,0.00,,,0.00,0.0,WUHU216DAVISWMX,2013-03-03 00:10:00,
2013-03-02 19:15:00,36.3,25.0,29.66,NW,313,5.0,10.0,63,0.00,,,0.00,0.0,WUHU216DAVISWMX,2013-03-03 00:15:00,
2013-03-02 19:20:00,36.2,24.5,29.66,NW,316,0.0,9.0,62,0.00,,,0.00,0.0,WUHU216DAVISWMX,2013-03-03 00:20:00,
2013-03-02 19:25:00,36.1,24.4,29.66,NW,318,4.0,9.0,62,0.00,,,0.00,0.0,WUHU216DAVISWMX,2013-03-03 00:25:00,
2013-03-02 19:30:00,36.0,24.3,29.66,North,349,7.0,13.0,62,0.00,,,0.00,0.0,WUHU216DAVISWMX,2013-03-03 00:30:00,
2013-03-02 19:35:00,36.0,24.3,29.66,NW,317,6.0,13.0,62,0.00,,,0.00,0.0,WUHU216DAVISWMX,2013-03-03 00:35:00,
2013-03-02 19:40:00,35.9,24.6,29.67,NW,322,0.0,10.0,63,0.00,,,0.00,0.0,WUHU216DAVISWMX,2013-03-03 00:40:00,
2013-03-02 19:45:00,35.7,24.0,29.67,NW,320,3.0,10.0,62,0.00,,,0.00,0.0,WUHU216DAVISWMX,2013-03-03 00:45:00,
2013-03-02 19:50:00,35.6,24.3,29.67,WNW,283,1.0,11.0,63,0.00,,,0.00,0.0,WUHU216DAVISWMX,2013-03-03 00:50:00,
2013-03-02 19:55:00,35.5,24.2,29.67,WNW,303,4.0,11.0,63,0.00,,,0.00,0.0,WUHU216DAVISWMX,2013-03-03 00:55:00,
2013-03-02 20:00:00,35.4,24.1,29.67,WNW,300,3.0,11.0,63,0.00,,,0.00,0.0,WUHU216DAVISWMX,2013-03-03 01:00:00,
2013-03-02 20:05:00,35.4,24.1,29.68,NW,316,2.0,11.0,63,0.00,,,0.00,0.0,WUHU216DAVISWMX,2013-03-03 01:05:00,
2013-03-02 20:10:00,35.3,24.4,29.68,NW,306,4.0,9.0,64,0.00,,,0.00,0.0,WUHU216DAVISWMX,2013-03-03 01:10:00,
2013-03-02 20:15:00,35.2,24.3,29.68,NW,304,1.0,6.0,64,0.00,,,0.00,0.0,WUHU216DAVISWMX,2013-03-03 01:15:00,
2013-03-02 20:20:00,35.2,24.3,29.68,WNW,298,2.0,5.0,64,0.00,,,0.00,0.0,WUHU216DAVISWMX,2013-03-03 01:20:00,
2013-03-02 20:25:00,35.1,24.6,29.68,West,272,3.0,7.0,65,0.00,,,0.00,0.0,WUHU216DAVISWMX,2013-03-03 01:25:00,
2013-03-02 20:30:00,35.0,24.5,29.68,NNW,328,2.0,7.0,65,0.00,,,0.00,0.0,WUHU216DAVISWMX,2013-03-03 01:30:00,
2013-03-02 20:35:00,35.0,24.5,29.68,NW,319,2.0,8.0,65,0.00,,,0.00,0.0,WUHU216DAVISWMX,2013-03-03 01:35:00,
2013-03-02 20:40:00,34.9,24.8,29.68,NW,314,4.0,8.0,66,0.00,,,0.00,0.0,WUHU216DAVISWMX,2013-03-03 01:40:00,
2013-03-02 20:45:00,34.8,24.7,29.68,NW,311,0.0,5.0,66,0.00,,,0.00,0.0,WUHU216DAVISWMX,2013-03-03 01:45:00,
2013-03-02 20:50:00,34.8,24.7,29.68,WNW,284,5.0,7.0,66,0.00,,,0.00,0.0,WUHU216DAVISWMX,2013-03-03 01:50:00,
2013-03-02 20:55:00,34.7,24.6,29.68,NW,310,4.0,7.0,66,0.00,,,0.00,0.0,WUHU216DAVISWMX,2013-03-03 01:55:00,
2013-03-02 21:00:00,34.7,24.6,29.69,NW,311,3.0,10.0,66,0.00,,,0.00,0.0,WUHU216DAVISWMX,2013-03-03 02:00:00,
2013-03-02 21:05:00,34.6,24.5,29.68,WNW,300,3.0,10.0,66,0.00,,,0.00,0.0,WUHU216DAVISWMX,2013-03-03 02:05:00,
2013-03-02 21:10:00,34.5,24.7,29.68,NW,305,2.0,7.0,67,0.00,,,0.00,0.0,WUHU216DAVISWMX,2013-03-03 02:10:00,
2013-03-02 21:15:00,34.4,24.6,29.68,WNW,303,4.0,7.0,67,0.00,,,0.00,0.0,WUHU216DAVISWMX,2013-03-03 02:15:00,
2013-03-02 21:20:00,34.4,24.6,29.68,NNW,332,4.0,7.0,67,0.00,,,0.00,0.0,WUHU216DAVISWMX,2013-03-03 02:20:00,
2013-03-02 21:25:00,34.3,24.5,29.68,NW,323,2.0,7.0,67,0.00,,,0.00,0.0,WUHU216DAVISWMX,2013-03-03 02:25:00,
2013-03-02 21:30:00,34.2,24.5,29.68,NW,324,3.0,7.0,67,0.00,,,0.00,0.0,WUHU216DAVISWMX,2013-03-03 02:30:00,
2013-03-02 21:35:00,34.2,24.8,29.68,NW,319,2.0,5.0,68,0.00,,,0.00,0.0,WUHU216DAVISWMX,2013-03-03 02:35:00,
2013-03-02 21:40:00,34.2,24.8,29.68,WNW,288,4.0,7.0,68,0.00,,,0.00,0.0,WUHU216DAVISWMX,2013-03-03 02:40:00,
2013-03-02 21:45:00,34.1,24.7,29.68,NW,304,1.0,7.0,68,0.00,,,0.00,0.0,WUHU216DAVISWMX,2013-03-03 02:45:00,
2013-03-02 21:50:00,34.0,24.6,29.68,NW,320,5.0,8.0,68,0.00,,,0.00,0.0,WUHU216DAVISWMX,2013-03-03 02:50:00,
2013-03-02 21:55:00,34.0,24.6,29.67,NW,305,4.0,8.0,68,0.00,,,0.00,0.0,WUHU216DAVISWMX,2013-03-03 02:55:00,
2013-03-02 22:00:00,33.9,24.5,29.68,NW,316,2.0,8.0,68,0.00,,,0.00,0.0,WUHU216DAVISWMX,2013-03-03 03:00:00,
2013-03-02 22:05:00,33.8,24.4,29.67,WNW,302,3.0,6.0,68,0.00,,,0.00,0.0,WUHU216DAVISWMX,2013-03-03 03:05:00,
2013-03-02 22:10:00,33.8,24.1,29.67,NW,314,1.0,6.0,67,0.00,,,0.00,0.0,WUHU216DAVISWMX,2013-03-03 03:10:00,
2013-03-02 22:15:00,33.7,24.3,29.67,NW,310,1.0,5.0,68,0.00,,,0.00,0.0,WUHU216DAVISWMX,2013-03-03 03:15:00,
2013-03-02 22:20:00,33.6,23.9,29.67,NW,305,3.0,6.0,67,0.00,,,0.00,0.0,WUHU216DAVISWMX,2013-03-03 03:20:00,
2013-03-02 22:25:00,33.5,24.1,29.67,NW,310,7.0,7.0,68,0.00,,,0.00,0.0,WUHU216DAVISWMX,2013-03-03 03:25:00,
2013-03-02 22:30:00,33.4,23.7,29.67,WNW,288,4.0,7.0,67,0.00,,,0.00,0.0,WUHU216DAVISWMX,2013-03-03 03:30:00,
2013-03-02 22:35:00,33.3,23.6,29.67,NW,318,3.0,12.0,67,0.00,,,0.00,0.0,WUHU216DAVISWMX,2013-03-03 03:35:00,
2013-03-02 22:40:00,33.2,23.5,29.67,NW,326,1.0,12.0,67,0.00,,,0.00,0.0,WUHU216DAVISWMX,2013-03-03 03:40:00,
2013-03-02 22:45:00,33.1,23.4,29.67,NW,306,2.0,9.0,67,0.00,,,0.00,0.0,WUHU216DAVISWMX,2013-03-03 03:45:00,
2013-03-02 22:50:00,33.0,23.3,29.67,WNW,299,3.0,10.0,67,0.00,,,0.00,0.0,WUHU216DAVISWMX,2013-03-03 03:50:00,
2013-03-02 22:55:00,33.0,23.3,29.67,WNW,300,1.0,10.0,67,0.00,,,0.00,0.0,WUHU216DAVISWMX,2013-03-03 03:55:00,
2013-03-02 23:00:00,32.9,23.2,29.66,WNW,291,5.0,9.0,67,0.00,,,0.00,0.0,WUHU216DAVISWMX,2013-03-03 04:00:00,
2013-03-02 23:05:00,32.8,23.1,29.66,NW,325,2.0,11.0,67,0.00,,,0.00,0.0,WUHU216DAVISWMX,2013-03-03 04:05:00,
2013-03-02 23:10:00,32.8,23.1,29.66,NW,324,5.0,11.0,67,0.00,,,0.00,0.0,WUHU216DAVISWMX,2013-03-03 04:10:00,
2013-03-02 23:15:00,32.8,23.1,29.66,NNW,330,6.0,6.0,67,0.00,,,0.00,0.0,WUHU216DAVISWMX,2013-03-03 04:15:00,
2013-03-02 23:20:00,32.7,23.4,29.66,WNW,294,5.0,7.0,68,0.00,,,0.00,0.0,WUHU216DAVISWMX,2013-03-03 04:20:00,
2013-03-02 23:25:00,32.6,23.3,29.66,NW,309,6.0,7.0,68,0.00,,,0.00,0.0,WUHU216DAVISWMX,2013-03-03 04:25:00,
2013-03-02 23:30:00,32.6,23.3,29.66,NNW,342,0.0,9.0,68,0.00,,,0.00,0.0,WUHU216DAVISWMX,2013-03-03 04:30:00,
2013-03-02 23:35:00,32.6,23.6,29.66,NNW,327,3.0,9.0,69,0.00,,,0.00,0.0,WUHU216DAVISWMX,2013-03-03 04:35:00,
2013-03-02 23:40:00,32.5,23.5,29.66,NW,311,4.0,8.0,69,0.00,,,0.00,0.0,WUHU216DAVISWMX,2013-03-03 04:40:00,
2013-03-02 23:45:00,32.5,23.5,29.66,NW,312,6.0,6.0,69,0.00,,,0.00,0.0,WUHU216DAVISWMX,2013-03-03 04:45:00,
2013-03-02 23:50:00,32.4,23.8,29.66,NW,313,3.0,6.0,70,0.00,,,0.00,0.0,WUHU216DAVISWMX,2013-03-03 04:50:00,
2013-03-02 23:55:00,32.4,23.8,29.66,NW,308,0.0,6.0,70,0.00,,,0.00,0.0,WUHU216DAVISWMX,2013-03-03 04:55:00,